Regional Weather Roundup
Issued by NWS Glasgow, MT

Home | Current Version | Previous Version | Text Only | Print | Product List | Glossary On
Versions: 1 2 3 4 5 6 7 8 9 10 11 12 13 14 15 16 17 18 19 20 21 22 23 24 25 26 27
000
ASUS45 KGGW 292115
RWRGGW
HOURLY REGIONAL WEATHER ROUNDUP FOR NORTHEAST MONTANA
NATIONAL WEATHER SERVICE GLASGOW MONTANA
300 PM MDT FRI JUL 29 2016

NOTE: "FAIR" INDICATES FEW OR NO CLOUDS BELOW 12,000 FEET WITH NO
SIGNIFICANT WEATHER AND/OR OBSTRUCTIONS TO VISISBILITY.

NORTHEAST MONTANA


CITY           SKY/WX    TMP DP  RH WIND       PRES   REMARKS
GLASGOW        MOSUNNY   78  56  46 E8        30.00F
PLENTYWOOD       N/A     75  49  39 SW5         N/A
WOLF POINT     CLOUDY    81  51  35 VRB3      30.01F
JORDAN           N/A     83  56  39 VRB6      30.00F
WINNETT          N/A     84  47  27 N7G17       N/A
SIDNEY         PTSUNNY   79  43  27 VRB5      30.02F
GLENDIVE       MOSUNNY   77  51  40 CALM      30.04F
MALTA            N/A     84  56  38 W3          N/A
SCOBEY           N/A     76  51  41 CALM      30.02F
OPHEIM           N/A     61  57  88 E6        29.86R

FORT PECK REPORTS


CITY           SKY/WX    TMP DP  RH WIND       PRES   REMARKS
FORT PECK        N/A     80  53  39 E3          N/A
THE PINES        N/A     81  53  37 NE5         N/A

SOUTHEAST MONTANA


CITY           SKY/WX    TMP DP  RH WIND       PRES   REMARKS
BILLINGS       MOSUNNY   86  48  26 E9        30.02F
MILES CITY     PTSUNNY   81  54  39 E8        30.01F
BAKER          SUNNY     79  56  45 CALM      30.05F
LIVINGSTON     SUNNY     88  45  22 N10G16    30.06F

CENTRAL MONTANA


CITY           SKY/WX    TMP DP  RH WIND       PRES   REMARKS
HAVRE          MOSUNNY   84  53  34 NW7       30.00F
LEWISTOWN      SUNNY     81  53  37 E8        30.09F
GREAT FALLS    SUNNY     84  48  28 VRB6      30.04F
CUT BANK         N/A     79  51  37 NW6       30.05F
HELENA         SUNNY     88  46  23 NE8       30.01F
BUTTE          SUNNY     83  37  19 VRB7      30.12F
BOZEMAN        SUNNY     86  39  19 VRB3      30.07F

WESTERN MONTANA


CITY           SKY/WX    TMP DP  RH WIND       PRES   REMARKS
MISSOULA       SUNNY     92  44  19 NW9       29.99F
KALISPELL      NOT AVBL

NORTH DAKOTA


CITY           SKY/WX    TMP DP  RH WIND       PRES   REMARKS
WILLISTON      MOSUNNY   82  46  28 CALM      30.01F
DICKINSON      MOSUNNY   79  55  43 SE9       30.02F
MINOT          CLOUDY    82  58  43 S9        30.01F
BISMARCK       MOSUNNY   81  58  45 VRB6      30.02F

SOUTHERN SASKATCHEWAN


CITY           SKY/WX    TMP DP  RH WIND       PRES   REMARKS
REGINA         PTSUNNY   77  64  65 NW7       29.97F
MOOSE JAW      MOSUNNY   77  61  57 W3        29.99F
ESTEVAN        CLOUDY    75  54  46 VRB7      30.01F
SWIFT CURRENT  PTSUNNY   77  61  57 NW9       29.99F





USA.gov is the U.S. government's official web portal to all federal, state and local government web resources and services.